Weather History for Glendive, MT

Change the Weather History Date:

Wednesday, November 14, 2012

  Actual Average Record
Temperature  
Mean Temperature 26 °F -  
Max Temperature 37 °F 39 °F 64 °F (1999)
Min Temperature 15 °F 19 °F -2 °F (2000)
Degree Days  
Heating Degree Days 39    
Moisture  
Dew Point 23 °F    
Average Humidity 81    
Maximum Humidity 93    
Minimum Humidity 70    
Precipitation  
Precipitation 0.00 in - - ()
Sea Level Pressure  
Sea Level Pressure 30.06 in    
Wind  
Wind Speed 8 mph (SSW)    
Max Wind Speed 17 mph    
Max Gust Speed 24 mph    
Visibility 10 miles    
Events      
Averages and records for this station are not official NWS values.
T = Trace of Precipitation, MM = Missing Value Source: NWS Daily Summary

Daily Weather History Graph

Daily Weather History Graph

Search for Another Location

Airport:

Trip Planner

Search our weather history database for the weather conditions in past years. The results will help you decide how hot, cold, wet, or windy it might be!

Date:

Astronomy

Nov. 14, 2012 Rise Set
Actual Time 7:02 AM MST 4:24 PM MST
Civil Twilight 6:29 AM MST 4:57 PM MST
Nautical Twilight 5:52 AM MST 5:34 PM MST
Astronomical Twilight 5:16 AM MST 6:10 PM MST
Moon 7:58 AM MST (11/14) 5:11 PM MST (11/14)
Length of Visible Light 10h 28m
Length of Day
9h 22m
New Moon, 1% of the Moon is Illuminated
Nov 14
New Moon
Nov 20
First Quarter
Nov 28
Full
Dec 6
Last Quarter
Dec 13
New

Hourly Weather History & Observations

Time (MST) Temp. Windchill Dew Point Humidity Pressure Visibility Wind Dir Wind Speed Gust Speed Precip Events Conditions
12:15 AM 26.6 °F 18.2 °F 23.0 °F 86% 30.08 in 10.0 mi South 8.1 mph - N/A   Clear
12:35 AM 24.8 °F 15.3 °F 21.2 °F 86% 30.07 in 10.0 mi South 9.2 mph - N/A   Clear
12:55 AM 24.8 °F 16.1 °F 19.4 °F 80% 30.07 in 10.0 mi South 8.1 mph - N/A   Clear
1:15 AM 24.8 °F 15.3 °F 21.2 °F 86% 30.07 in 10.0 mi South 9.2 mph - N/A   Clear
1:35 AM 23.0 °F 15.8 °F 19.4 °F 86% 30.07 in 10.0 mi South 5.8 mph - N/A   Clear
1:55 AM 24.8 °F 16.9 °F 21.2 °F 86% 30.07 in 10.0 mi South 6.9 mph - N/A   Clear
2:15 AM 21.2 °F 12.6 °F 19.4 °F 93% 30.07 in 10.0 mi South 6.9 mph - N/A   Clear
2:35 AM 23.0 °F 14.7 °F 19.4 °F 86% 30.07 in 10.0 mi South 6.9 mph - N/A   Clear
2:55 AM 23.0 °F 14.7 °F 19.4 °F 86% 30.06 in 10.0 mi South 6.9 mph - N/A   Clear
3:15 AM 23.0 °F 15.8 °F 21.2 °F 93% 30.06 in 10.0 mi SSE 5.8 mph - N/A   Clear
3:35 AM 19.4 °F 10.4 °F 15.8 °F 86% 30.05 in 10.0 mi South 6.9 mph - N/A   Clear
3:55 AM 19.4 °F 8.6 °F 17.6 °F 93% 30.04 in 10.0 mi South 9.2 mph - N/A   Clear
4:15 AM 19.4 °F 10.4 °F 17.6 °F 93% 30.04 in 10.0 mi South 6.9 mph - N/A   Clear
4:35 AM 21.2 °F 10.9 °F 19.4 °F 93% 30.04 in 10.0 mi South 9.2 mph - N/A   Clear
4:55 AM 21.2 °F 11.7 °F 17.6 °F 86% 30.04 in 10.0 mi SSE 8.1 mph - N/A   Clear
5:15 AM 21.2 °F 11.7 °F 17.6 °F 86% 30.03 in 10.0 mi SSE 8.1 mph - N/A   Clear
5:35 AM 19.4 °F 9.5 °F 17.6 °F 93% 30.03 in 10.0 mi South 8.1 mph - N/A   Clear
5:55 AM 19.4 °F 7.9 °F 17.6 °F 93% 30.03 in 10.0 mi South 10.4 mph - N/A   Clear
6:15 AM 19.4 °F 10.4 °F 15.8 °F 86% 30.03 in 10.0 mi SSE 6.9 mph - N/A   Clear
6:35 AM 17.6 °F 7.3 °F 12.2 °F 79% 30.03 in 10.0 mi South 8.1 mph - N/A   Clear
6:55 AM 15.8 °F 8.6 °F 12.2 °F 86% 30.03 in 10.0 mi South 4.6 mph - N/A   Clear
7:15 AM 17.6 °F 5.7 °F 14.0 °F 86% 30.03 in 10.0 mi South 10.4 mph - N/A   Clear
7:35 AM 19.4 °F 7.9 °F 17.6 °F 93% 30.03 in 10.0 mi South 10.4 mph - N/A   Clear
7:55 AM 19.4 °F 7.9 °F 17.6 °F 93% 30.04 in 10.0 mi South 10.4 mph - N/A   Clear
8:15 AM 21.2 °F 10.9 °F 19.4 °F 93% 30.04 in 10.0 mi South 9.2 mph - N/A   Clear
8:35 AM 23.0 °F 13.1 °F 17.6 °F 80% 30.04 in 10.0 mi South 9.2 mph - N/A   Clear
8:55 AM 24.8 °F 14.0 °F 21.2 °F 86% 30.03 in 10.0 mi South 11.5 mph - N/A   Clear
9:15 AM 26.6 °F 18.2 °F 21.2 °F 80% 30.04 in 10.0 mi South 8.1 mph - N/A   Clear
9:35 AM 26.6 °F 17.5 °F 21.2 °F 80% 30.04 in 10.0 mi South 9.2 mph - N/A   Clear
9:55 AM 26.6 °F 19.1 °F 21.2 °F 80% 30.04 in 10.0 mi South 6.9 mph - N/A   Clear
10:15 AM 28.4 °F 21.2 °F 23.0 °F 80% 30.04 in 10.0 mi South 6.9 mph - N/A   Clear
10:35 AM 30.2 °F 25.4 °F 24.8 °F 80% 30.04 in 10.0 mi SSE 4.6 mph - N/A   Clear
10:55 AM 30.2 °F 21.9 °F 26.6 °F 86% 30.04 in 10.0 mi South 9.2 mph - N/A   Clear
11:15 AM 32.0 °F 24.2 °F 26.6 °F 80% 30.03 in 10.0 mi South 9.2 mph - N/A   Clear
11:35 AM 33.8 °F 27.0 °F 26.6 °F 75% 30.02 in 10.0 mi South 8.1 mph - N/A   Clear
11:55 AM 35.6 °F 27.5 °F 28.4 °F 75% 30.02 in 10.0 mi SSW 11.5 mph - N/A   Clear
12:15 PM 35.6 °F 27.1 °F 26.6 °F 70% 30.01 in 10.0 mi SSW 12.7 mph - N/A   Clear
12:35 PM 37.4 °F 32.1 °F 28.4 °F 70% 30.01 in 10.0 mi SSW 6.9 mph - N/A   Clear
1:15 PM 37.4 °F 31.4 °F 28.4 °F 70% 30.01 in 10.0 mi South 8.1 mph - N/A   Clear
1:35 PM 37.4 °F 32.1 °F 28.4 °F 70% 30.01 in 10.0 mi South 6.9 mph - N/A   Clear
1:55 PM 35.6 °F 29.2 °F 28.4 °F 75% 30.00 in 10.0 mi SSE 8.1 mph - N/A   Clear
2:15 PM 33.8 °F 27.0 °F 28.4 °F 81% 30.00 in 10.0 mi South 8.1 mph - N/A   Clear
2:35 PM 33.8 °F 27.0 °F 28.4 °F 81% 30.00 in 10.0 mi South 8.1 mph - N/A   Clear
2:55 PM 33.8 °F 27.0 °F 28.4 °F 81% 30.01 in 10.0 mi South 8.1 mph - N/A   Clear
3:15 PM 33.8 °F 29.6 °F 26.6 °F 75% 30.02 in 10.0 mi SSW 4.6 mph - N/A   Clear
3:35 PM 33.8 °F 26.4 °F 26.6 °F 75% 30.02 in 10.0 mi SSW 9.2 mph - N/A   Clear
3:55 PM 35.6 °F 30.7 °F 26.6 °F 70% 30.02 in 10.0 mi SSW 5.8 mph - N/A   Clear
4:15 PM 33.8 °F 27.0 °F 26.6 °F 75% 30.02 in 10.0 mi South 8.1 mph - N/A   Clear
4:35 PM 35.6 °F 30.7 °F 26.6 °F 70% 30.03 in 10.0 mi SW 5.8 mph - N/A   Clear
4:55 PM 33.8 °F 30.8 °F 26.6 °F 75% 30.03 in 10.0 mi West 3.5 mph - N/A   Partly Cloudy
5:15 PM 33.8 °F - 26.6 °F 75% 30.04 in 10.0 mi Calm Calm - N/A   Mostly Cloudy
5:35 PM 33.8 °F - 24.8 °F 70% 30.05 in 10.0 mi Calm Calm - N/A   Mostly Cloudy
6:15 PM 32.0 °F - 24.8 °F 75% 30.06 in 10.0 mi Calm Calm - N/A   Partly Cloudy
6:35 PM 33.8 °F - 26.6 °F 75% 30.06 in 10.0 mi Calm Calm - N/A   Clear
6:55 PM 30.2 °F 22.6 °F 24.8 °F 80% 30.06 in 10.0 mi West 8.1 mph - N/A   Clear
7:15 PM 30.2 °F 21.9 °F 24.8 °F 80% 30.07 in 10.0 mi West 9.2 mph - N/A   Clear
7:35 PM 30.2 °F 21.9 °F 24.8 °F 80% 30.08 in 10.0 mi West 9.2 mph - N/A   Partly Cloudy
7:55 PM 33.8 °F 25.3 °F 28.4 °F 81% 30.09 in 10.0 mi WNW 11.5 mph - N/A   Mostly Cloudy
8:15 PM 37.4 °F 28.9 °F 28.4 °F 70% 30.10 in 10.0 mi WNW 13.8 mph - N/A   Overcast
8:35 PM 35.6 °F 26.6 °F 28.4 °F 75% 30.10 in 10.0 mi WNW 13.8 mph - N/A   Scattered Clouds
8:55 PM 33.8 °F 23.5 °F 26.6 °F 75% 30.11 in 10.0 mi WNW 16.1 mph - N/A   Clear
9:15 PM 35.6 °F 25.5 °F 26.6 °F 70% 30.11 in 10.0 mi NW 17.3 mph 24.2 mph N/A   Clear
9:55 PM 32.0 °F 22.1 °F 26.6 °F 80% 30.14 in 10.0 mi NW 13.8 mph - N/A   Clear
10:35 PM 30.2 °F 25.4 °F 24.8 °F 80% 30.17 in 10.0 mi WNW 4.6 mph - N/A   Clear
10:55 PM 26.6 °F - 21.2 °F 80% 30.18 in 10.0 mi Calm Calm - N/A   Clear
11:15 PM 26.6 °F - 21.2 °F 80% 30.19 in 10.0 mi Calm Calm - N/A   Clear
11:35 PM 26.6 °F 22.6 °F 21.2 °F 80% 30.20 in 10.0 mi North 3.5 mph - N/A   Clear
11:55 PM 26.6 °F 19.1 °F 23.0 °F 86% 30.21 in 10.0 mi NW 6.9 mph - N/A   Clear